{"data":{"norad_id":61968,"intl_designator":"2024-210K","name":"STARLINK-32471","alt_names":[],"object_type":"PAYLOAD","status":"ACTIVE","operator":null,"country":"US","launch_date":"2024-11-14","launch_site_code":"AFETR","launch_vehicle":null,"mission":null,"orbit_class":"UNKNOWN","rcs_meters":null,"size_class":null,"mass_kg":null,"dimensions":null,"purposes":["comms"],"wikipedia_slug":null,"has_3d_model":false,"image_url":null,"decayed_at":null,"tle_current":{"epoch":"2026-05-24T20:52:24.021408Z","epoch_age_seconds":82968,"freshness":"FRESH","line1":"1 61968U 24210K   26144.86972247  .00016895  00000+0  62181-3 0  9990","line2":"2 61968  42.9998 102.4323 0001168 286.8848  73.1876 15.27592662 86650","mean_motion":15.27592662,"eccentricity":0.0001168,"inclination_deg":42.9998,"raan_deg":102.4323,"arg_perigee_deg":286.8848,"mean_anomaly_deg":73.1876,"bstar":0.00062181,"rev_number":8665,"period_min":94.265967349875,"perigee_km":482.20979961079,"apogee_km":483.81256382604,"semimajor_km":6861.1481817184,"source":"CELESTRAK","updated_at":"2026-05-25T13:38:19.513750Z"}}}